[[{"header":{"parameterUnit":"m.s-1","parameterCategory":1,"la1":30.2991,"la2":30.254,"lo1":-89.0895,"lo2":-89.0444,"dy":0.0017,"dx":0.0017,"nx":28,"ny":28,"refTime":"2025-07-12T21:00:00:Z","depth":0,"parameterNumber":2,"parameterNumberName":"U-component_of_WINDS"},"data":[0,0,0,0,0,0,0,0,0,0,0,0,0,0,0,0,0,0,0,0,0,0,0,0,0,0,0,0,0,0,0,0,0,0,0,0,0,0,0,0,0,0,0,0,0,0,0,0,0,0,0,0,0,0,0,0,0,0,0.7058,0.706,0,0.721,0.7212,0.7214,0.7284,0.7284,0.7284,0.7283,0.7443,0.7447,0.7451,0,0,0,0,0,0,0,0,0,0,0,0,0,0.6831,0.6835,0.7058,0.706,0.7062,0.721,0.7212,0.7214,0.7284,0.7284,0.7283,0.7283,0.7441,0.7446,0.7452,0,0,0,0,0,0,0,0,0,0,0,0,0,0.6951,0.6836,0.7058,0.7115,0.7121,0.7209,0.7212,0.7215,0.7284,0.7284,0.7283,0.7283,0.7439,0.7446,0.7452,0.7497,0,0,0.7472,0.7475,0,0,0,0,0,0,0,0,0.6944,0.696,0.7104,0.7111,0.7118,0.7228,0.719,0.7309,0.7284,0.7222,0.7283,0.7283,0.7371,0.7384,0.7413,0.7504,0.7511,0.7473,0.7477,0.748,0.7481,0,0,0,0,0,0,0,0.6936,0.6953,0.7118,0.7106,0.7115,0.7133,0.715,0.7213,0.7296,0.7228,0.7233,0.725,0.7375,0.7406,0.7417,0.7513,0.7473,0.7478,0.7482,0.7485,0.7649,0.765,0,0,0,0,0,0,0.6918,0.6946,0.7114,0.7123,0.7029,0.7137,0.7156,0.7193,0.7296,0.7311,0.725,0.7252,0.7395,0.7409,0.7423,0.7482,0.748,0.7486,0.7489,0.7649,0.7649,0.765,0,0,0,0,0,0,0.6913,0.6932,0.7108,0.7036,0.706,0.7142,0.7182,0.7196,0.7227,0.7313,0.7328,0.7266,0.7395,0.7414,0.7478,0.7488,0.7489,0.7495,0.7648,0.7649,0.7649,0.76,0,0,0,0,0,0,0.6906,0.693,0.6947,0.7036,0.7063,0.7159,0.7183,0.7199,0.7238,0.7243,0.7332,0.7346,0.7397,0.7467,0.7484,0.7497,0.75,0.7648,0.7648,0.7649,0.7601,0.7599,0.7597,0,0,0,0,0,0.6898,0.6928,0.6948,0.6967,0.7086,0.7159,0.7175,0.7231,0.7238,0.7256,0.7311,0.7344,0.7484,0.7473,0.7493,0.7508,0.7647,0.7648,0.7649,0.7602,0.7599,0.7597,0,0,0,0,0,0,0.684,0.6941,0.6964,0.7023,0.7082,0.7171,0.7196,0.7227,0.7286,0.7288,0.7356,0.7376,0.7434,0.7478,0.7464,0.7557,0.7569,0.7574,0.7526,0.7524,0.7522,0.7511,0.7505,0,0,0,0,0,0.6833,0.6883,0.6969,0.7014,0.7042,0.7113,0.7147,0.7185,0.7249,0.7275,0.7335,0.7397,0.7455,0.7492,0.755,0.7607,0.7628,0.7627,0.7625,0.7623,0.7627,0.7661,0.7661,0.7653,0.7653,0.7653,0,0,0.6822,0.6883,0.6911,0.7003,0.7053,0.7104,0.7134,0.7187,0.7225,0.7284,0.7347,0.7393,0.7467,0.7527,0.7557,0.7565,0.7634,0.7624,0.7622,0.7627,0.7662,0.7662,0.7663,0.7654,0.7653,0.7653,0,0,0.6827,0.6878,0.692,0.6969,0.7044,0.7092,0.7101,0.7186,0.7218,0.7283,0.7327,0.7375,0.7474,0.7524,0.7563,0.7586,0.7618,0.7603,0.7593,0.7624,0.7625,0.7626,0.7635,0.7637,0.7606,0.7606,0.7606,0,0.6803,0.6881,0.6939,0.6989,0.7028,0.7082,0.7126,0.7171,0.7261,0.7288,0.7295,0.742,0.7474,0.7547,0.7552,0.7581,0.7596,0.7593,0.762,0.7622,0.7624,0.7633,0.7636,0.7604,0.7604,0.7604,0.7604,0,0.6848,0.6901,0.6927,0.7011,0.7054,0.7101,0.7166,0.7203,0.7237,0.7283,0.7349,0.7414,0.7487,0.7507,0.7541,0.7585,0.7588,0.7607,0.7621,0.7621,0.7631,0.7635,0.76,0.7601,0.7602,0.7602,0,0,0.6822,0.6937,0.6945,0.6984,0.707,0.7113,0.7162,0.7232,0.7262,0.7322,0.7366,0.7447,0.7465,0.7509,0.755,0.7577,0.7592,0.7594,0.7596,0.7591,0.7644,0.763,0.7633,0.7613,0.7614,0.7614,0.7638,0,0.6839,0.6929,0.6982,0.705,0.7101,0.7151,0.7195,0.7252,0.7297,0.7347,0.7397,0.7453,0.7472,0.7499,0.7529,0.7583,0.7603,0.7582,0.7655,0.7657,0.7636,0.7638,0.7623,0.7643,0.7643,0.7643,0.7644,0,0.6872,0.6929,0.7002,0.7082,0.7106,0.7143,0.7211,0.7257,0.7324,0.7355,0.7403,0.7443,0.7498,0.7506,0.7583,0.7567,0.76,0.7631,0.7633,0.7643,0.7651,0.7649,0.765,0.7653,0.765,0.765,0.7649,0,0.6845,0.6942,0.6998,0.703,0.7124,0.715,0.719,0.7257,0.7295,0.7355,0.738,0.7446,0.7482,0.7532,0.7589,0.7589,0.766,0.7673,0.7688,0.7687,0.7702,0.77,0.7709,0.7721,0.7721,0.7721,0.7721,0,0.686,0.6902,0.6987,0.7022,0.7072,0.7132,0.718,0.7225,0.7283,0.7328,0.7376,0.7418,0.749,0.7541,0.7586,0.7643,0.7659,0.7686,0.7697,0.7682,0.7678,0.7705,0.7705,0.7722,0.7722,0.7721,0.7721,0,0.6839,0.6898,0.6963,0.7046,0.7068,0.7101,0.7174,0.721,0.7256,0.7312,0.7329,0.7403,0.7464,0.7526,0.7609,0.764,0.7696,0.7711,0.7673,0.768,0.7691,0.769,0.7719,0.7726,0.7731,0.7731,0.7731,0,0.6845,0.6879,0.6966,0.6999,0.7038,0.7091,0.713,0.7191,0.7229,0.7307,0.7334,0.7399,0.7454,0.7551,0.7612,0.7676,0.7694,0.77,0.7704,0.7688,0.7695,0.7693,0.7697,0.7698,0.7698,0.7698,0.7697,0,0.6849,0.6876,0.693,0.6993,0.7038,0.7092,0.7147,0.7171,0.7243,0.7284,0.7347,0.739,0.7475,0.7539,0.761,0.7653,0.7688,0.7695,0.7702,0.7687,0.7664,0.7677,0.7668,0.7695,0.7695,0.7695,0.7695,0.7695,0.6842,0.6875,0.6941,0.6999,0.7047,0.7097,0.7135,0.7186,0.7239,0.7312,0.7345,0.7408,0.7474,0.7573,0.7615,0.7666,0.7676,0.7685,0.7688,0.769,0.7687,0.7654,0.768,0.768,0.768,0.768,0.768,0,0.6849,0.6894,0.6947,0.7022,0.7068,0.7095,0.7157,0.7194,0.7249,0.7307,0.736,0.7432,0.7494,0.756,0.7627,0.7655,0.7672,0.767,0.7669,0.7679,0.7674,0.7662,0.7655,0.7655,0.7655,0.7655,0.7655,0.7655,0.6858,0.6915,0.6949,0.703,0.7075,0.7137,0.717,0.7217,0.7264,0.7342,0.7393,0.7435,0.7497,0.7568,0.7626,0.7644,0.7667,0.766,0.7682,0.7677,0.7679,0.7681,0.767,0.7664,0.7664,0.7683,0.7683,0.7683]},{"header":{"parameterUnit":"m.s-1","parameterCategory":1,"la1":30.2991,"la2":30.254,"lo1":-89.0895,"lo2":-89.0444,"dy":0.0017,"dx":0.0017,"nx":28,"ny":28,"refTime":"2025-07-12T21:00:00:Z","depth":0,"parameterNumber":3,"parameterNumberName":"V-component_of_WINDS"},"data":[0,0,0,0,0,0,0,0,0,0,0,0,0,0,0,0,0,0,0,0,0,0,0,0,0,0,0,0,0,0,0,0,0,0,0,0,0,0,0,0,0,0,0,0,0,0,0,0,0,0,0,0,0,0,0,0,0,0,3.6643,3.6643,0,3.6597,3.6597,3.6596,3.6589,3.6589,3.659,3.659,3.6536,3.6534,3.6532,0,0,0,0,0,0,0,0,0,0,0,0,0,3.6719,3.6718,3.6644,3.6643,3.6642,3.6597,3.6597,3.6596,3.6589,3.6589,3.659,3.659,3.6536,3.6534,3.6532,0,0,0,0,0,0,0,0,0,0,0,0,0,3.6681,3.6717,3.6644,3.6633,3.6632,3.6597,3.6597,3.6596,3.6589,3.6589,3.659,3.659,3.6537,3.6535,3.6532,3.6502,0,0,3.6523,3.6522,0,0,0,0,0,0,0,0,3.6683,3.6678,3.6636,3.6634,3.6633,3.66,3.6603,3.6564,3.6588,3.6605,3.659,3.6591,3.6556,3.6552,3.6542,3.6499,3.6497,3.6523,3.6521,3.652,3.6519,0,0,0,0,0,0,0,3.6686,3.668,3.6625,3.6635,3.6633,3.6629,3.6624,3.6596,3.6577,3.6604,3.6603,3.6598,3.6555,3.6544,3.654,3.6496,3.6523,3.6521,3.6519,3.6518,3.6426,3.6426,0,0,0,0,0,0,3.6691,3.6682,3.6626,3.6624,3.666,3.6627,3.6622,3.6609,3.6578,3.6574,3.6597,3.6598,3.6549,3.6543,3.6538,3.6501,3.652,3.6518,3.6516,3.6427,3.6426,3.6425,0,0,0,0,0,0,3.6693,3.6686,3.6628,3.6653,3.6645,3.6625,3.6611,3.6608,3.6597,3.6573,3.6569,3.659,3.6549,3.6542,3.6511,3.6499,3.6516,3.6514,3.6428,3.6427,3.6426,3.6426,0,0,0,0,0,0,3.6695,3.6687,3.6677,3.6653,3.6644,3.6604,3.6611,3.6607,3.6593,3.6593,3.6565,3.6561,3.6549,3.6516,3.6509,3.6495,3.6512,3.6429,3.6427,3.6426,3.6427,3.6425,3.6423,0,0,0,0,0,3.6698,3.6677,3.6676,3.667,3.6631,3.6604,3.6598,3.6587,3.6592,3.6581,3.6565,3.6562,3.6502,3.6512,3.6505,3.649,3.643,3.6428,3.6426,3.6428,3.6425,3.6423,0,0,0,0,0,0,3.6698,3.6674,3.6673,3.6644,3.6626,3.6602,3.6588,3.6585,3.6563,3.6564,3.6548,3.6542,3.6512,3.6498,3.6511,3.6459,3.6466,3.6462,3.647,3.6467,3.6465,3.6469,3.651,0,0,0,0,0,3.6696,3.6677,3.6656,3.6633,3.6624,3.6608,3.6595,3.6588,3.6568,3.656,3.6542,3.652,3.6497,3.6481,3.6458,3.6425,3.6418,3.6411,3.6409,3.6408,3.6405,3.6385,3.6382,3.642,3.642,3.642,0,0,3.6689,3.6673,3.6662,3.6633,3.6618,3.6597,3.6601,3.6579,3.6563,3.6555,3.6526,3.6512,3.6487,3.6455,3.644,3.6442,3.6393,3.6406,3.6405,3.6402,3.6383,3.638,3.6376,3.6418,3.6419,3.6419,0,0,3.6666,3.6653,3.6632,3.6618,3.6596,3.6586,3.6581,3.6557,3.6548,3.6519,3.6513,3.6492,3.6452,3.6434,3.642,3.6391,3.6386,3.6383,3.6373,3.6354,3.6351,3.6349,3.6337,3.6333,3.638,3.638,3.638,0,3.666,3.6631,3.6621,3.66,3.6587,3.6581,3.6559,3.6545,3.6515,3.6505,3.6509,3.6459,3.6441,3.6405,3.6398,3.6387,3.6379,3.6386,3.6353,3.635,3.6347,3.6336,3.6332,3.638,3.638,3.638,3.638,0,3.6623,3.6603,3.6589,3.6563,3.6548,3.6526,3.6512,3.6497,3.6492,3.648,3.6449,3.6428,3.6401,3.6392,3.6385,3.6354,3.6356,3.6356,3.6362,3.6344,3.6333,3.6329,3.638,3.638,3.638,3.638,0,0,3.6599,3.657,3.6565,3.6553,3.6529,3.6512,3.6489,3.6464,3.6451,3.6431,3.641,3.6377,3.6377,3.6361,3.6352,3.6336,3.6313,3.6338,3.6337,3.6334,3.6276,3.6275,3.6271,3.631,3.6309,3.6309,3.6278,0,3.6573,3.6535,3.6526,3.6492,3.6473,3.6467,3.6447,3.6429,3.6417,3.6397,3.6383,3.6359,3.6362,3.6352,3.6336,3.6319,3.6301,3.6321,3.6288,3.6287,3.6295,3.6265,3.6264,3.6237,3.6274,3.6273,3.6272,0,3.6538,3.6519,3.6484,3.6463,3.6454,3.6436,3.6413,3.6394,3.6373,3.6365,3.6347,3.634,3.6314,3.6322,3.6285,3.6299,3.6285,3.6274,3.6273,3.6269,3.6278,3.6259,3.6227,3.6223,3.6266,3.6266,3.6267,0,3.6523,3.6489,3.6464,3.6454,3.6428,3.6416,3.6404,3.6383,3.6369,3.6347,3.6337,3.6312,3.6298,3.6278,3.6263,3.6271,3.6227,3.6234,3.6218,3.6218,3.6208,3.6209,3.6173,3.62,3.62,3.62,3.6201,0,3.6494,3.6473,3.6457,3.6441,3.6416,3.6405,3.638,3.6368,3.635,3.633,3.6323,3.6304,3.6286,3.6264,3.6252,3.6222,3.6216,3.6208,3.6205,3.6208,3.6209,3.6198,3.6199,3.6199,3.62,3.62,3.62,0,3.6473,3.6462,3.6434,3.6412,3.6406,3.6389,3.6369,3.6352,3.6341,3.6316,3.6309,3.629,3.6264,3.6248,3.6213,3.6205,3.6172,3.617,3.618,3.6179,3.6164,3.6165,3.6118,3.6111,3.6144,3.6144,3.6144,0,3.6455,3.6439,3.6416,3.6404,3.6393,3.6372,3.6358,3.6346,3.6331,3.6306,3.6291,3.6265,3.6244,3.6202,3.6183,3.6157,3.6153,3.6139,3.6149,3.6153,3.6152,3.6153,3.6151,3.6137,3.6137,3.6136,3.6136,0,3.6425,3.642,3.6401,3.638,3.6364,3.6346,3.6328,3.6318,3.6302,3.6286,3.626,3.6244,3.621,3.6183,3.6155,3.6141,3.6135,3.6133,3.6128,3.6131,3.6137,3.6133,3.6175,3.6134,3.6134,3.6135,3.6135,3.6135,3.6404,3.639,3.6372,3.635,3.6336,3.632,3.6303,3.629,3.6269,3.6243,3.6236,3.6209,3.6187,3.6149,3.6134,3.6111,3.6113,3.6105,3.6103,3.6101,3.6101,3.6142,3.6105,3.6106,3.6106,3.6106,3.6106,0,3.6373,3.6361,3.6342,3.6319,3.6301,3.6301,3.628,3.6266,3.6243,3.6223,3.6203,3.6173,3.6147,3.6127,3.61,3.6085,3.6082,3.6078,3.6079,3.6075,3.6101,3.6108,3.6081,3.6081,3.6081,3.6081,3.6081,3.6081,3.6355,3.633,3.6323,3.6289,3.6277,3.6253,3.6241,3.6225,3.621,3.6178,3.6157,3.6145,3.6125,3.6096,3.6072,3.6066,3.6056,3.6053,3.6047,3.6071,3.6073,3.6076,3.6082,3.6051,3.6051,3.6023,3.6022,3.6022]}]]